SV7JLF-3 Weather Reports


time (UTC)temp
C
wind
direction
speed
KPH
gust
KPH
rain 1hr
cm
rain 24hr
cm
rain mn
cm
humidity
%
barometer
mb
20260906064053 24 331 8.0 0.0 0.00 0.00 0.00 65 1018.7
20260906064004 24 335 6.4 11.3 0.00 0.00 0.00 64 1015.9
20260906063545 23 311 6.4 0.0 0.00 0.00 0.00 64 1018.6
20260906063051 23 340 4.8 0.0 0.00 0.00 0.00 66 1018.5
20260906063004 23 334 4.8 8.0 0.00 0.00 0.00 66 1015.9
20260906062521 23 340 4.8 0.0 0.00 0.00 0.00 66 1018.5
20260906062057 23 14 6.4 0.0 0.00 0.00 0.00 66 1018.4
20260906061553 23 11 6.4 0.0 0.00 0.00 0.00 67 1018.5
20260906061513 23 355 6.4 0.0 0.00 0.00 0.00 67 1018.4
20260906061033 23 5 4.8 0.0 0.00 0.00 0.00 67 1018.4
20260906060530 22 348 4.8 0.0 0.00 0.00 0.00 67 1018.3
20260906060047 22 355 4.8 0.0 0.00 0.00 0.00 68 1018.4
20260906060004 22 355 4.8 0.0 0.00 0.00 0.00 68 1018.1
20260906055534 22 342 4.8 0.0 0.00 0.00 0.00 69 1018.3
20260906055046 21 335 4.8 0.0 0.00 0.00 0.00 69 1018.1
20260906055003 21 335 3.2 4.8 0.00 0.00 0.00 69 1015.9
20260906054613 21 321 4.8 0.0 0.00 0.00 0.00 69 1018.1
20260906054542 21 321 4.8 0.0 0.00 0.00 0.00 69 1018.3
20260906054035 21 338 6.4 0.0 0.00 0.00 0.00 70 1018.1
20260906054004 21 338 6.4 8.0 0.00 0.00 0.00 70 1015.9
20260906053530 21 334 6.4 0.0 0.00 0.00 0.00 71 1018.1
20260906053111 21 344 6.4 0.0 0.00 0.00 0.00 70 1018.0
20260906053027 21 343 6.4 0.0 0.00 0.00 0.00 70 1018.3
20260906053004 21 328 8.0 8.0 0.00 0.00 0.00 70 1015.9
20260906052545 21 313 8.0 0.0 0.00 0.00 0.00 70 1018.2
20260906052004 21 353 6.4 9.7 0.00 0.00 0.00 69 1015.9
20260906051624 21 323 9.7 0.0 0.00 0.00 0.00 67 1018.0
20260906051524 21 314 9.7 0.0 0.00 0.00 0.00 67 1018.2
20260906050045 21 264 11.3 0.0 0.00 0.00 0.00 67 1017.9
20260906050004 21 264 14.5 16.1 0.00 0.00 0.00 67 1015.9
20260906050002 21 257 11.3 0.0 0.00 0.00 0.00 67 1017.6
20260906045604 21 278 11.3 0.0 0.00 0.00 0.00 68 1017.7
20260906044624 20 259 11.3 0.0 0.00 0.00 0.00 70 1017.7
20260906044526 20 269 11.3 0.0 0.00 0.00 0.00 70 1017.8
20260906043048 17 241 4.8 0.0 0.00 0.00 0.00 79 1017.7
20260906043009 17 240 4.8 0.0 0.00 0.00 0.00 79 1017.5
20260906043003 17 240 4.8 8.0 0.00 0.00 0.00 79 1015.9
20260906042528 17 243 4.8 0.0 0.00 0.00 0.00 80 1017.6
20260906042043 17 244 3.2 0.0 0.00 0.00 0.00 80 1017.6
20260906042003 17 271 3.2 4.8 0.00 0.00 0.00 81 1015.9
20260906041639 17 290 1.6 0.0 0.00 0.00 0.00 80 1017.4
20260906041554 17 290 1.6 0.0 0.00 0.00 0.00 80 1017.4
20260906041020 17 46 1.6 0.0 0.00 0.00 0.00 80 1017.5
20260906040606 17 46 1.6 0.0 0.00 0.00 0.00 80 1017.6
20260906040107 17 46 1.6 0.0 0.00 0.00 0.00 80 1017.3
20260906040004 17 46 0.0 4.8 0.00 0.00 0.00 80 1015.9
20260906035523 17 46 3.2 0.0 0.00 0.00 0.00 80 1017.2
20260906035102 17 45 1.6 0.0 0.00 0.00 0.00 79 1017.3
20260906035004 17 45 3.2 4.8 0.00 0.00 0.00 79 1015.9
20260906034606 17 45 3.2 0.0 0.00 0.00 0.00 78 1017.1
20260906034044 17 40 3.2 0.0 0.00 0.00 0.00 77 1017.2
20260906033127 17 61 1.6 0.0 0.00 0.00 0.00 75 1017.1
20260906033027 18 61 1.6 0.0 0.00 0.00 0.00 74 1017.3
20260906033004 18 41 0.0 4.8 0.00 0.00 0.00 74 1015.9
20260906032543 18 273 3.2 0.0 0.00 0.00 0.00 74 1017.1
20260906032004 18 273 4.8 4.8 0.00 0.00 0.00 74 1015.9
20260906031550 18 281 3.2 0.0 0.00 0.00 0.00 74 1017.1
20260906031512 18 283 3.2 0.0 0.00 0.00 0.00 74 1017.0
20260906031101 18 315 4.8 0.0 0.00 0.00 0.00 73 1017.2
20260906031004 18 315 3.2 4.8 0.00 0.00 0.00 73 1015.9
20260906030548 18 315 3.2 0.0 0.00 0.00 0.00 72 1017.1
20260906030113 18 313 4.8 0.0 0.00 0.00 0.00 71 1017.0
20260906030004 18 210 3.2 4.8 0.00 0.00 0.00 71 1015.9
20260906025521 18 210 6.4 0.0 0.00 0.00 0.00 71 1016.9
20260906025035 18 205 6.4 0.0 0.00 0.00 0.00 70 1016.9
20260906025004 18 205 6.4 8.0 0.00 0.00 0.00 70 1015.9
20260906024624 18 200 6.4 0.0 0.00 0.00 0.00 70 1016.8
20260906024525 18 199 6.4 0.0 0.00 0.00 0.00 70 1017.0
20260906024042 18 190 6.4 0.0 0.00 0.00 0.00 70 1016.9
20260906024004 18 187 4.8 8.0 0.00 0.00 0.00 70 1015.9
20260906023046 18 218 3.2 0.0 0.00 0.00 0.00 69 1017.1
20260906023010 18 218 3.2 0.0 0.00 0.00 0.00 69 1016.9
20260906023003 18 220 3.2 4.8 0.00 0.00 0.00 69 1015.9
20260906022004 18 223 1.6 4.8 0.00 0.00 0.00 70 1015.9
20260906021555 18 223 1.6 0.0 0.00 0.00 0.00 70 1016.8
20260906021541 18 217 1.6 0.0 0.00 0.00 0.00 70 1016.9
20260906021030 18 216 1.6 0.0 0.00 0.00 0.00 70 1016.9
20260906021003 18 216 1.6 8.0 0.00 0.00 0.00 70 1015.9
20260906020546 18 206 3.2 0.0 0.00 0.00 0.00 70 1017.1
20260906020054 18 215 6.4 0.0 0.00 0.00 0.00 70 1016.8
20260906020010 18 217 6.4 0.0 0.00 0.00 0.00 70 1016.7
20260906020004 18 213 4.8 8.0 0.00 0.00 0.00 70 1015.9
20260906015543 18 217 6.4 0.0 0.00 0.00 0.00 71 1016.9
20260906015034 18 225 4.8 0.0 0.00 0.00 0.00 72 1017.0
20260906014549 18 224 4.8 0.0 0.00 0.00 0.00 72 1017.1
20260906014519 18 224 4.8 0.0 0.00 0.00 0.00 72 1016.9
20260906014030 18 224 6.4 0.0 0.00 0.00 0.00 72 1016.9
20260906013100 18 224 4.8 0.0 0.00 0.00 0.00 73 1016.6
20260906013038 18 224 4.8 0.0 0.00 0.00 0.00 73 1016.8
20260906013004 18 224 4.8 4.8 0.00 0.00 0.00 73 1015.9
20260906012533 18 181 4.8 0.0 0.00 0.00 0.00 73 1016.9
20260906012050 18 180 4.8 0.0 0.00 0.00 0.00 72 1017.0
20260906012005 18 180 4.8 4.8 0.00 0.00 0.00 72 1015.9
20260906011607 18 175 4.8 0.0 0.00 0.00 0.00 72 1016.8
20260906011535 18 175 4.8 0.0 0.00 0.00 0.00 72 1016.9
20260906011029 18 173 4.8 0.0 0.00 0.00 0.00 72 1016.8
20260906011004 18 173 6.4 8.0 0.00 0.00 0.00 72 1015.9
20260906010606 18 157 1.6 0.0 0.00 0.00 0.00 72 1016.8
20260906010055 18 156 0.0 0.0 0.00 0.00 0.00 72 1016.8
20260906010006 18 156 0.0 0.0 0.00 0.00 0.00 72 1016.7
20260906005025 18 156 1.6 0.0 0.00 0.00 0.00 72 1016.9
20260906005004 18 156 0.0 3.2 0.00 0.00 0.00 73 1015.9
20260906004547 18 156 3.2 0.0 0.00 0.00 0.00 73 1016.7
20260906004029 19 156 1.6 0.0 0.00 0.00 0.00 72 1016.9
20260906003547 19 156 0.0 0.0 0.00 0.00 0.00 72 1017.0
20260906003111 19 156 0.0 0.0 0.00 0.00 0.00 72 1017.0
20260906003028 19 156 0.0 0.0 0.00 0.00 0.00 72 1017.1
20260906003005 19 156 0.0 3.2 0.00 0.00 0.00 72 1015.9
20260906002528 19 156 0.0 0.0 0.00 0.00 0.00 72 1017.0
20260906002042 20 156 1.6 0.0 0.00 0.00 0.00 71 1017.1
20260906002005 20 156 1.6 4.8 0.00 0.00 0.00 71 1015.9
20260906001605 19 158 3.2 0.0 0.00 0.00 0.00 70 1016.8
20260906001044 20 155 4.8 0.0 0.00 0.00 0.00 70 1016.8
20260906001005 20 148 3.2 4.8 0.00 0.00 0.00 70 1015.9
20260906000128 20 136 4.8 0.0 0.00 0.00 0.00 70 1016.7
20260906000028 20 131 4.8 0.0 0.00 0.00 0.00 69 1016.9
20260906000004 20 131 3.2 4.8 0.00 0.00 0.00 69 1015.9
20260905235544 20 126 4.8 0.0 0.00 0.00 0.00 67 1016.9
20260905235030 20 78 4.8 0.0 0.00 0.00 0.00 67 1016.9
20260905234527 21 52 3.2 0.0 0.00 0.00 0.00 67 1016.9
20260905234505 20 52 3.2 0.0 0.00 0.00 0.00 66 1016.8
20260905234036 21 32 1.6 0.0 0.00 0.00 0.00 63 1017.0
20260905234005 21 31 3.2 4.8 0.00 0.00 0.00 64 1015.9
20260905233546 21 139 0.0 0.0 0.00 0.00 0.00 64 1016.9
20260905233126 21 139 1.6 0.0 0.00 0.00 0.00 63 1016.9
20260905233034 21 139 1.6 0.0 0.00 0.00 0.00 63 1016.8
20260905232543 21 139 3.2 0.0 0.00 0.00 0.00 64 1016.7
20260905232004 21 209 3.2 4.8 0.00 0.00 0.00 61 1015.9
20260905231638 21 217 4.8 0.0 0.00 0.00 0.00 61 1016.7
20260905231548 21 219 4.8 0.0 0.00 0.00 0.00 61 1016.9
20260905231045 21 223 4.8 0.0 0.00 0.00 0.00 61 1017.0
20260905231004 21 218 4.8 8.0 0.00 0.00 0.00 61 1015.9
20260905230028 21 227 6.4 0.0 0.00 0.00 0.00 62 1017.1
20260905230005 21 215 4.8 9.7 0.00 0.00 0.00 62 1015.9
20260905230002 21 221 6.4 0.0 0.00 0.00 0.00 62 1017.1
20260905225603 21 223 6.4 0.0 0.00 0.00 0.00 62 1017.2
20260905225005 21 227 6.4 9.7 0.00 0.00 0.00 62 1015.9
20260905224626 21 209 4.8 0.0 0.00 0.00 0.00 63 1016.9
20260905224527 21 213 4.8 0.0 0.00 0.00 0.00 63 1017.1
20260905224042 21 221 3.2 0.0 0.00 0.00 0.00 63 1017.0
20260905224006 21 228 3.2 4.8 0.00 0.00 0.00 63 1015.9
20260905223142 21 250 3.2 0.0 0.00 0.00 0.00 63 1017.2
20260905223048 21 242 3.2 0.0 0.00 0.00 0.00 63 1017.3
20260905223005 21 242 3.2 4.8 0.00 0.00 0.00 63 1015.9
20260905222544 21 243 4.8 0.0 0.00 0.00 0.00 63 1017.2
20260905222005 21 222 4.8 4.8 0.00 0.00 0.00 63 1015.9
20260905221529 21 234 3.2 0.0 0.00 0.00 0.00 64 1017.1
20260905221509 21 234 3.2 0.0 0.00 0.00 0.00 64 1017.0
20260905221106 21 234 3.2 0.0 0.00 0.00 0.00 64 1017.1
20260905221005 21 234 3.2 4.8 0.00 0.00 0.00 64 1015.9
20260905220125 21 239 6.4 0.0 0.00 0.00 0.00 65 1016.9
20260905215954 21 235 6.4 9.7 0.00 0.00 0.00 65 1015.9
20260905215525 21 224 6.4 0.0 0.00 0.00 0.00 64 1017.0
20260905214953 21 225 4.8 4.8 0.00 0.00 0.00 65 1015.9
20260905214614 21 227 4.8 0.0 0.00 0.00 0.00 67 1016.9
20260905214515 21 229 4.8 0.0 0.00 0.00 0.00 68 1017.0
20260905214032 21 265 4.8 0.0 0.00 0.00 0.00 68 1017.0
20260905213954 21 265 4.8 4.8 0.00 0.00 0.00 69 1015.9
20260905213126 20 254 3.2 0.0 0.00 0.00 0.00 68 1017.0
20260905213033 21 254 3.2 0.0 0.00 0.00 0.00 69 1017.0
20260905212954 21 254 1.6 4.8 0.00 0.00 0.00 69 1015.9
20260905211954 20 254 3.2 4.8 0.00 0.00 0.00 70 1015.9
20260905211551 20 255 1.6 0.0 0.00 0.00 0.00 70 1016.9
20260905211532 20 255 1.6 0.0 0.00 0.00 0.00 70 1017.1
20260905210954 20 86 0.0 1.6 0.00 0.00 0.00 72 1015.9
20260905210536 21 86 1.6 0.0 0.00 0.00 0.00 74 1017.2
20260905210049 21 86 1.6 0.0 0.00 0.00 0.00 74 1017.2
20260905210020 20 86 1.6 0.0 0.00 0.00 0.00 74 1017.1
20260905205527 21 85 1.6 0.0 0.00 0.00 0.00 74 1017.2
20260905205015 21 85 1.6 0.0 0.00 0.00 0.00 73 1017.1
20260905204955 21 85 0.0 4.8 0.00 0.00 0.00 73 1015.9
20260905204555 21 85 1.6 0.0 0.00 0.00 0.00 72 1016.7
20260905204512 21 85 1.6 0.0 0.00 0.00 0.00 72 1016.9
20260905204026 21 85 1.6 0.0 0.00 0.00 0.00 72 1017.1
20260905203954 21 85 1.6 3.2 0.00 0.00 0.00 72 1015.9
20260905203536 21 85 1.6 0.0 0.00 0.00 0.00 72 1017.0
20260905203048 21 85 1.6 0.0 0.00 0.00 0.00 72 1016.9
20260905203014 21 85 1.6 0.0 0.00 0.00 0.00 72 1017.1
20260905202955 21 85 1.6 3.2 0.00 0.00 0.00 72 1015.9
20260905202532 21 85 0.0 0.0 0.00 0.00 0.00 72 1016.9
20260905201954 21 84 0.0 4.8 0.00 0.00 0.00 72 1015.9
20260905201626 21 84 1.6 0.0 0.00 0.00 0.00 72 1016.9
20260905201033 21 98 1.6 0.0 0.00 0.00 0.00 73 1016.9
20260905200955 21 98 1.6 4.8 0.00 0.00 0.00 73 1015.9
20260905200121 21 98 4.8 0.0 0.00 0.00 0.00 74 1016.8
20260905200013 21 98 4.8 0.0 0.00 0.00 0.00 74 1016.9
20260905195954 21 98 3.2 4.8 0.00 0.00 0.00 74 1015.9
20260905195524 21 98 4.8 0.0 0.00 0.00 0.00 74 1017.0
20260905195016 22 98 4.8 0.0 0.00 0.00 0.00 73 1016.9
20260905194954 22 98 4.8 4.8 0.00 0.00 0.00 73 1015.9
20260905194623 22 98 4.8 0.0 0.00 0.00 0.00 72 1016.6
20260905194550 22 98 4.8 0.0 0.00 0.00 0.00 72 1016.9
20260905194043 22 98 3.2 0.0 0.00 0.00 0.00 71 1016.7
20260905193518 22 98 1.6 0.0 0.00 0.00 0.00 70 1016.7
20260905193044 22 98 3.2 0.0 0.00 0.00 0.00 68 1016.6
20260905192517 23 321 3.2 0.0 0.00 0.00 0.00 67 1016.6
20260905191955 23 319 3.2 4.8 0.00 0.00 0.00 67 1015.9
20260905191559 23 319 1.6 0.0 0.00 0.00 0.00 65 1016.5
20260905191534 23 319 1.6 0.0 0.00 0.00 0.00 65 1016.6
20260905191025 23 319 1.6 0.0 0.00 0.00 0.00 63 1016.6
20260905190954 23 319 1.6 3.2 0.00 0.00 0.00 63 1015.9
20260905190106 23 319 3.2 0.0 0.00 0.00 0.00 65 1016.5
20260905190042 23 319 3.2 0.0 0.00 0.00 0.00 65 1016.7
20260905185526 23 319 6.4 0.0 0.00 0.00 0.00 64 1016.6
20260905185035 23 304 8.0 0.0 0.00 0.00 0.00 66 1016.7
20260905184555 23 302 8.0 0.0 0.00 0.00 0.00 66 1016.5
20260905183955 23 303 8.0 8.0 0.00 0.00 0.00 66 1015.9
20260905183557 24 328 4.8 0.0 0.00 0.00 0.00 65 1016.5
20260905183045 23 338 4.8 0.0 0.00 0.00 0.00 64 1016.2
20260905183017 24 338 4.8 0.0 0.00 0.00 0.00 64 1016.3
20260905182954 24 340 3.2 9.7 0.00 0.00 0.00 64 1015.9
20260905182533 24 340 6.4 0.0 0.00 0.00 0.00 63 1016.4
20260905182024 25 350 4.8 0.0 0.00 0.00 0.00 63 1016.4
20260905181955 25 351 4.8 4.8 0.00 0.00 0.00 63 1015.9
20260905181538 25 323 4.8 0.0 0.00 0.00 0.00 62 1016.3
20260905181513 25 323 4.8 0.0 0.00 0.00 0.00 61 1016.2
20260905180954 25 316 3.2 9.7 0.00 0.00 0.00 61 1015.7
20260905180536 25 316 3.2 0.0 0.00 0.00 0.00 60 1016.1
20260905180046 25 267 1.6 0.0 0.00 0.00 0.00 58 1015.8
20260905180018 26 267 1.6 0.0 0.00 0.00 0.00 58 1016.0
20260905175513 26 49 1.6 0.0 0.00 0.00 0.00 56 1016.0
20260905174954 26 49 1.6 4.8 0.00 0.00 0.00 56 1015.5
20260905174605 26 49 3.2 0.0 0.00 0.00 0.00 55 1015.7
20260905174517 26 49 3.2 0.0 0.00 0.00 0.00 55 1015.8
20260905174029 27 28 3.2 0.0 0.00 0.00 0.00 54 1015.9
20260905173113 27 355 3.2 0.0 0.00 0.00 0.00 47 1015.8
20260905173016 27 355 3.2 0.0 0.00 0.00 0.00 48 1015.8
20260905172955 27 355 3.2 4.8 0.00 0.00 0.00 48 1015.4
20260905172548 28 181 3.2 0.0 0.00 0.00 0.00 45 1015.5
20260905172036 28 181 4.8 0.0 0.00 0.00 0.00 44 1015.7
20260905171954 28 181 4.8 8.0 0.00 0.00 0.00 43 1015.2
20260905171530 28 181 6.4 0.0 0.00 0.00 0.00 44 1015.5
20260905170537 30 180 4.8 0.0 0.00 0.00 0.00 42 1015.7
20260905170047 30 158 3.2 0.0 0.00 0.00 0.00 41 1015.5
20260905170010 30 157 3.2 0.0 0.00 0.00 0.00 40 1015.4
20260905165955 30 155 3.2 4.8 0.00 0.00 0.00 41 1015.1
20260905165102 31 97 3.2 0.0 0.00 0.00 0.00 38 1015.2
20260905164955 31 96 3.2 4.8 0.00 0.00 0.00 37 1015.0
20260905164612 31 96 3.2 0.0 0.00 0.00 0.00 40 1015.3
20260905164511 31 95 3.2 0.0 0.00 0.00 0.00 40 1015.4
20260905163955 32 96 3.2 4.8 0.00 0.00 0.00 41 1014.9
20260905163040 33 113 4.8 0.0 0.00 0.00 0.00 37 1015.3
20260905163007 33 113 4.8 0.0 0.00 0.00 0.00 37 1015.2
20260905162955 33 113 4.8 4.8 0.00 0.00 0.00 37 1014.8
20260905162523 33 107 3.2 0.0 0.00 0.00 0.00 36 1015.3
20260905162027 34 91 1.6 0.0 0.00 0.00 0.00 37 1015.3
20260905161955 34 91 3.2 4.8 0.00 0.00 0.00 36 1014.9
20260905161620 33 90 0.0 0.0 0.00 0.00 0.00 33 1015.2
20260905161534 34 90 0.0 0.0 0.00 0.00 0.00 34 1015.4
20260905160955 34 90 0.0 1.6 0.00 0.00 0.00 31 1015.1
20260905160538 34 90 1.6 0.0 0.00 0.00 0.00 29 1015.6
20260905160126 34 90 3.2 0.0 0.00 0.00 0.00 29 1015.3
20260905160045 34 90 3.2 0.0 0.00 0.00 0.00 30 1015.6
20260905155955 34 90 1.6 4.8 0.00 0.00 0.00 30 1015.0
20260905155034 34 90 3.2 0.0 0.00 0.00 0.00 29 1015.5
20260905154955 34 90 3.2 4.8 0.00 0.00 0.00 27 1015.1
20260905154501 34 90 3.2 0.0 0.00 0.00 0.00 28 1015.3
20260905154032 34 76 3.2 0.0 0.00 0.00 0.00 28 1015.6
20260905153956 34 74 4.8 4.8 0.00 0.00 0.00 28 1015.0
20260905153528 34 59 3.2 0.0 0.00 0.00 0.00 28 1015.3
20260905153108 34 43 3.2 0.0 0.00 0.00 0.00 27 1015.3
20260905153034 34 43 3.2 0.0 0.00 0.00 0.00 28 1015.4
20260905152956 34 43 3.2 4.8 0.00 0.00 0.00 28 1014.9
20260905152033 34 44 3.2 0.0 0.00 0.00 0.00 28 1015.6
20260905151957 34 44 3.2 4.8 0.00 0.00 0.00 28 1015.1
20260905151555 34 45 3.2 0.0 0.00 0.00 0.00 27 1015.5
20260905151509 34 45 3.2 0.0 0.00 0.00 0.00 26 1015.4
20260905150956 34 39 4.8 4.8 0.00 0.00 0.00 26 1015.1
20260905150538 34 67 3.2 0.0 0.00 0.00 0.00 26 1015.4
20260905150043 34 63 3.2 0.0 0.00 0.00 0.00 27 1015.5
20260905150004 34 60 3.2 0.0 0.00 0.00 0.00 27 1015.4
20260905145956 34 57 4.8 8.0 0.00 0.00 0.00 26 1015.0
20260905145519 34 71 3.2 0.0 0.00 0.00 0.00 26 1015.6
20260905145015 34 57 3.2 0.0 0.00 0.00 0.00 27 1015.6
20260905144955 34 51 3.2 8.0 0.00 0.00 0.00 27 1015.1
20260905144532 34 36 4.8 0.0 0.00 0.00 0.00 27 1015.5
20260905144507 34 36 4.8 0.0 0.00 0.00 0.00 27 1015.4
20260905144014 34 22 4.8 0.0 0.00 0.00 0.00 28 1015.5
20260905143955 34 15 8.0 8.0 0.00 0.00 0.00 28 1015.2
20260905143511 34 35 4.8 0.0 0.00 0.00 0.00 28 1015.6
20260905143040 34 9 6.4 0.0 0.00 0.00 0.00 25 1015.5
20260905143021 34 10 6.4 0.0 0.00 0.00 0.00 25 1015.6
20260905142955 34 7 4.8 14.5 0.00 0.00 0.00 25 1015.2
20260905142517 34 5 8.0 0.0 0.00 0.00 0.00 26 1015.7
20260905142026 35 28 6.4 0.0 0.00 0.00 0.00 27 1015.6
20260905141647 34 360 4.8 0.0 0.00 0.00 0.00 26 1015.6
20260905141543 35 30 4.8 0.0 0.00 0.00 0.00 25 1015.8
20260905141026 35 306 6.4 0.0 0.00 0.00 0.00 25 1015.8
20260905140543 35 333 8.0 0.0 0.00 0.00 0.00 25 1015.8
20260905140115 34 325 6.4 0.0 0.00 0.00 0.00 26 1015.7
20260905140017 35 334 6.4 0.0 0.00 0.00 0.00 25 1016.0
20260905135956 35 358 8.0 14.5 0.00 0.00 0.00 25 1015.4
20260905135532 35 329 4.8 0.0 0.00 0.00 0.00 27 1015.9
20260905135020 34 360 6.4 0.0 0.00 0.00 0.00 28 1016.0
20260905134623 34 13 6.4 0.0 0.00 0.00 0.00 28 1015.9
20260905134514 34 13 6.4 0.0 0.00 0.00 0.00 28 1016.0
20260905134021 34 341 6.4 0.0 0.00 0.00 0.00 29 1016.0
20260905133956 34 340 3.2 19.3 0.00 0.00 0.00 28 1015.6
20260905133514 35 5 8.0 0.0 0.00 0.00 0.00 28 1016.2
20260905133028 35 342 8.0 0.0 0.00 0.00 0.00 28 1016.3
20260905133001 34 340 8.0 0.0 0.00 0.00 0.00 28 1016.2
20260905132955 35 325 11.3 19.3 0.00 0.00 0.00 28 1015.8
20260905132517 35 334 6.4 0.0 0.00 0.00 0.00 28 1016.2
20260905132029 34 315 8.0 0.0 0.00 0.00 0.00 29 1016.2
20260905131532 34 327 6.4 0.0 0.00 0.00 0.00 29 1016.1
20260905131517 34 355 6.4 0.0 0.00 0.00 0.00 29 1016.3
20260905131031 34 355 6.4 0.0 0.00 0.00 0.00 29 1016.4
20260905130955 34 354 8.0 16.1 0.00 0.00 0.00 29 1015.9
20260905130526 34 325 6.4 0.0 0.00 0.00 0.00 30 1016.5
20260905130041 34 360 6.4 0.0 0.00 0.00 0.00 31 1016.4
20260905130015 34 355 6.4 0.0 0.00 0.00 0.00 31 1016.6
20260905125956 34 356 4.8 16.1 0.00 0.00 0.00 30 1016.2
20260905125527 35 319 8.0 0.0 0.00 0.00 0.00 30 1016.7
20260905125022 34 346 9.7 0.0 0.00 0.00 0.00 31 1016.7
20260905124955 34 276 9.7 16.1 0.00 0.00 0.00 30 1016.3
20260905124546 33 346 6.4 0.0 0.00 0.00 0.00 31 1016.6
20260905124530 34 311 6.4 0.0 0.00 0.00 0.00 31 1016.8
20260905124023 34 19 6.4 0.0 0.00 0.00 0.00 31 1016.8
20260905123956 34 33 3.2 19.3 0.00 0.00 0.00 31 1016.4
20260905123539 34 306 8.0 0.0 0.00 0.00 0.00 30 1016.9
20260905123056 33 285 8.0 0.0 0.00 0.00 0.00 30 1016.9
20260905123026 34 294 8.0 0.0 0.00 0.00 0.00 31 1017.0
20260905122955 34 314 12.9 19.3 0.00 0.00 0.00 31 1016.5
20260905122523 33 337 8.0 0.0 0.00 0.00 0.00 31 1017.2
20260905122011 33 44 6.4 0.0 0.00 0.00 0.00 30 1017.1
20260905121955 33 43 8.0 14.5 0.00 0.00 0.00 30 1016.8
20260905121606 33 26 4.8 0.0 0.00 0.00 0.00 29 1017.0
20260905121528 34 14 4.8 0.0 0.00 0.00 0.00 30 1017.3
20260905121044 33 232 4.8 0.0 0.00 0.00 0.00 32 1017.2
20260905120955 33 248 4.8 11.3 0.00 0.00 0.00 32 1016.7
20260905120513 33 212 4.8 0.0 0.00 0.00 0.00 32 1017.1
20260905120100 33 75 3.2 0.0 0.00 0.00 0.00 33 1017.1
20260905120030 33 78 3.2 0.0 0.00 0.00 0.00 32 1017.1
20260905115525 33 79 3.2 0.0 0.00 0.00 0.00 33 1017.4
20260905115013 33 326 4.8 0.0 0.00 0.00 0.00 33 1017.4
20260905114955 33 288 4.8 14.5 0.00 0.00 0.00 33 1017.0
20260905114612 33 311 8.0 0.0 0.00 0.00 0.00 33 1017.4
20260905114525 33 305 8.0 0.0 0.00 0.00 0.00 33 1017.4
20260905114014 33 360 9.7 0.0 0.00 0.00 0.00 35 1017.6
20260905113956 33 21 9.7 19.3 0.00 0.00 0.00 34 1016.9
20260905113530 33 34 8.0 0.0 0.00 0.00 0.00 34 1017.6
20260905113026 33 342 6.4 0.0 0.00 0.00 0.00 34 1017.6
20260905113003 33 42 6.4 0.0 0.00 0.00 0.00 34 1017.4
20260905112956 33 30 6.4 11.3 0.00 0.00 0.00 34 1017.1
20260905112517 33 74 6.4 0.0 0.00 0.00 0.00 34 1017.7
20260905112009 33 30 4.8 0.0 0.00 0.00 0.00 35 1017.6
20260905111956 32 70 4.8 12.9 0.00 0.00 0.00 34 1017.4
20260905111544 32 355 4.8 0.0 0.00 0.00 0.00 35 1017.5
20260905111525 33 333 4.8 0.0 0.00 0.00 0.00 35 1017.6
20260905111024 32 32 4.8 0.0 0.00 0.00 0.00 33 1017.8
20260905110955 32 49 1.6 14.5 0.00 0.00 0.00 33 1017.5
20260905110518 32 48 6.4 0.0 0.00 0.00 0.00 34 1017.8
20260905110105 32 21 6.4 0.0 0.00 0.00 0.00 35 1017.7
20260905110017 32 5 4.8 0.0 0.00 0.00 0.00 34 1017.8
20260905105510 32 24 4.8 0.0 0.00 0.00 0.00 34 1017.8
20260905105011 33 342 4.8 0.0 0.00 0.00 0.00 33 1017.9
20260905104956 33 347 6.4 9.7 0.00 0.00 0.00 33 1017.4
20260905104529 32 309 3.2 0.0 0.00 0.00 0.00 35 1017.9
20260905104508 32 309 3.2 0.0 0.00 0.00 0.00 35 1017.7
20260905104042 32 40 6.4 0.0 0.00 0.00 0.00 35 1017.9
20260905103956 32 53 3.2 12.9 0.00 0.00 0.00 35 1017.6
20260905103521 32 27 6.4 0.0 0.00 0.00 0.00 35 1017.9
20260905103038 32 26 4.8 0.0 0.00 0.00 0.00 35 1017.7
20260905103014 32 22 4.8 0.0 0.00 0.00 0.00 35 1017.9
20260905102955 32 27 6.4 11.3 0.00 0.00 0.00 35 1017.5
20260905102514 32 348 4.8 0.0 0.00 0.00 0.00 36 1018.1
20260905102033 32 328 3.2 0.0 0.00 0.00 0.00 36 1018.1
20260905101955 32 295 4.8 9.7 0.00 0.00 0.00 36 1017.8
20260905101602 31 208 3.2 0.0 0.00 0.00 0.00 37 1018.3
20260905101545 31 189 3.2 0.0 0.00 0.00 0.00 37 1018.3
20260905101023 31 76 4.8 0.0 0.00 0.00 0.00 36 1018.3
20260905100517 31 119 4.8 0.0 0.00 0.00 0.00 37 1018.5
20260905100111 31 62 6.4 0.0 0.00 0.00 0.00 37 1018.4
20260905100015 31 48 6.4 0.0 0.00 0.00 0.00 37 1018.4
20260905095955 31 23 4.8 12.9 0.00 0.00 0.00 37 1018.1
20260905095509 31 15 6.4 0.0 0.00 0.00 0.00 37 1018.6
20260905095010 31 325 6.4 0.0 0.00 0.00 0.00 37 1018.7
20260905094956 31 352 6.4 12.9 0.00 0.00 0.00 37 1018.3
20260905094632 31 31 4.8 0.0 0.00 0.00 0.00 38 1018.6
20260905094549 31 336 4.8 0.0 0.00 0.00 0.00 38 1018.7
20260905094050 31 19 3.2 0.0 0.00 0.00 0.00 38 1018.8
20260905093955 31 34 1.6 12.9 0.00 0.00 0.00 39 1018.4
20260905093546 30 348 6.4 0.0 0.00 0.00 0.00 38 1018.9
20260905093051 30 20 6.4 0.0 0.00 0.00 0.00 39 1018.8
20260905093036 30 22 6.4 0.0 0.00 0.00 0.00 39 1018.9
20260905092955 30 28 4.8 12.9 0.00 0.00 0.00 39 1018.5
20260905092513 30 351 4.8 0.0 0.00 0.00 0.00 41 1018.9
20260905092032 30 18 6.4 0.0 0.00 0.00 0.00 40 1019.0
20260905091955 30 26 4.8 11.3 0.00 0.00 0.00 41 1018.6
20260905091614 30 28 6.4 0.0 0.00 0.00 0.00 39 1019.1
20260905091525 30 13 6.4 0.0 0.00 0.00 0.00 40 1019.1
20260905091026 30 325 4.8 0.0 0.00 0.00 0.00 40 1019.2
20260905090955 30 5 4.8 12.9 0.00 0.00 0.00 38 1018.8
20260905090514 30 333 4.8 0.0 0.00 0.00 0.00 44 1019.1
20260905090113 29 355 4.8 0.0 0.00 0.00 0.00 43 1019.1
20260905090013 30 26 6.4 0.0 0.00 0.00 0.00 44 1019.2
20260905085521 30 34 4.8 0.0 0.00 0.00 0.00 45 1019.2
20260905085017 30 18 4.8 0.0 0.00 0.00 0.00 45 1019.1
20260905084534 29 316 6.4 0.0 0.00 0.00 0.00 44 1019.2
20260905084510 30 312 6.4 0.0 0.00 0.00 0.00 44 1019.3
20260905084010 29 342 4.8 0.0 0.00 0.00 0.00 45 1019.2
20260905083956 29 356 6.4 11.3 0.00 0.00 0.00 46 1018.9
20260905083530 28 286 4.8 0.0 0.00 0.00 0.00 46 1019.3
20260905083056 28 252 4.8 0.0 0.00 0.00 0.00 46 1019.2
20260905083020 28 254 4.8 0.0 0.00 0.00 0.00 46 1019.4
20260905082956 28 274 3.2 9.7 0.00 0.00 0.00 46 1019.0
20260905082519 28 24 4.8 0.0 0.00 0.00 0.00 46 1019.6
20260905082057 28 285 3.2 0.0 0.00 0.00 0.00 47 1019.6
20260905081955 28 300 4.8 8.0 0.00 0.00 0.00 48 1019.1
20260905081557 27 291 3.2 0.0 0.00 0.00 0.00 47 1019.3
20260905081527 27 298 3.2 0.0 0.00 0.00 0.00 47 1019.5
20260905081025 27 331 4.8 0.0 0.00 0.00 0.00 48 1019.6
20260905080956 27 331 4.8 9.7 0.00 0.00 0.00 47 1019.1
20260905080516 27 18 4.8 0.0 0.00 0.00 0.00 48 1019.6
20260905080119 27 339 4.8 0.0 0.00 0.00 0.00 47 1019.3
20260905080012 27 286 4.8 0.0 0.00 0.00 0.00 47 1019.3
20260905075523 27 285 4.8 0.0 0.00 0.00 0.00 46 1019.4
20260905075022 27 329 3.2 0.0 0.00 0.00 0.00 48 1019.4
20260905074956 27 346 4.8 9.7 0.00 0.00 0.00 49 1019.0
20260905074637 26 23 3.2 0.0 0.00 0.00 0.00 50 1019.2
20260905074540 27 349 3.2 0.0 0.00 0.00 0.00 49 1019.4
20260905074011 26 331 3.2 0.0 0.00 0.00 0.00 51 1019.5
20260905073956 26 331 1.6 8.0 0.00 0.00 0.00 50 1019.0
20260905073529 26 325 1.6 0.0 0.00 0.00 0.00 50 1019.6
20260905073036 26 302 1.6 0.0 0.00 0.00 0.00 53 1019.3
20260905073019 26 302 1.6 0.0 0.00 0.00 0.00 53 1019.5
20260905072956 26 302 1.6 4.8 0.00 0.00 0.00 53 1018.9
20260905072517 26 308 3.2 0.0 0.00 0.00 0.00 54 1019.5
20260905072035 25 227 3.2 0.0 0.00 0.00 0.00 54 1019.4
20260905071955 25 256 3.2 9.7 0.00 0.00 0.00 54 1019.0
20260905071655 25 294 3.2 0.0 0.00 0.00 0.00 57 1019.4
20260905071613 25 333 3.2 0.0 0.00 0.00 0.00 56 1019.5
20260905071018 25 336 3.2 0.0 0.00 0.00 0.00 57 1019.5
20260905070956 25 335 3.2 8.0 0.00 0.00 0.00 56 1019.1
20260905070536 25 296 3.2 0.0 0.00 0.00 0.00 56 1019.5
20260905070114 24 340 3.2 0.0 0.00 0.00 0.00 59 1019.3
20260905070014 25 343 3.2 0.0 0.00 0.00 0.00 59 1019.6
20260905065956 25 344 3.2 8.0 0.00 0.00 0.00 59 1019.1
20260905065533 25 317 4.8 0.0 0.00 0.00 0.00 58 1019.5
20260905065022 24 299 4.8 0.0 0.00 0.00 0.00 59 1019.5
20260905064956 24 299 4.8 8.0 0.00 0.00 0.00 59 1019.1
20260905064526 23 304 3.2 0.0 0.00 0.00 0.00 60 1019.4
20260905064513 24 306 3.2 0.0 0.00 0.00 0.00 63 1019.6